Onweer radar Meer informatie blitzortung!


Regen radar Meer informatie rain snow radar


Bezoek onze andere website:

Template documentation
and downloads

And another site



15 daagse weersverwachting Droichead Nua (IE)

  • Overzicht
  • Per uur
  • 15 dagen
  • Extra
  • Vergelijk
  • Kaarten
  • Dagkaart
  • Meer »
  • Info
  • Statistieken
  • Directe link
    Temp 6h Neerslag Wind  
 05:01     21:56    Daglengte: 16:55 Vandaag
19:00
14°
1.4 mm
7
 05:01     21:56    Daglengte: 16:55 Morgen
01:00
11°
0.8 mm
5
07:00
11°
 
6
13:00
16°
 
7
19:00
16°
 
5
 05:01     21:57    Daglengte: 16:56 Dinsdag 18 Jun
01:00
11°
 
3
07:00
10°
 
3
13:00
16°
 
3
19:00
17°
 
2
 05:01     21:57    Daglengte: 16:56 Woensdag 19 Jun
01:00
11°
 
2
07:00
10°
 
2
13:00
16°
5.7 mm
4
Locatie info
Region: Leinster
Latitude: 53.1819°N
Longitude: -6.7967°E
92 masl
Temp/Neerslag /Baro Onweer/Dauwpunt
    Temp Baro 1h Neerslag Dauwpunt Wind UV Bewolking  
 05:01     21:56    Daglengte: 16:55 Vandaag
18:00
13°
1006.7 hPa 0.7 mm
49%
11.8°
6
Windvlaag: 6.7 m/s
80%
19:00
14°
1006.3 hPa 0.7 mm
82%
12.1°
7
Windvlaag: 6.1 m/s
36%
20:00
14°
1006.8 hPa 0.8 mm
82%
11.3°
7
Windvlaag: 5.9 m/s
46%
21:00
13°
1007.5 hPa
82%
10.5°
5
Windvlaag: 3.2 m/s
38%
22:00
12°
1008.1 hPa
81%
9.9°
5
Windvlaag: 3.2 m/s
36%
23:00
12°
1008.7 hPa
77%
9.6°
4
Windvlaag: 3.3 m/s
68%
 05:01     21:56    Daglengte: 16:55 Morgen
00:00
11°
1009.1 hPa
60%
9.3°
5
Windvlaag: 4.1 m/s
50%
01:00
11°
1009.3 hPa
16%
8.8°
5
Windvlaag: 4.4 m/s
61%
02:00
10°
1009.6 hPa
15%
8.6°
5
Windvlaag: 5 m/s
63%
03:00
10°
1009.7 hPa
14%
8.5°
5
Windvlaag: 5.2 m/s
25%
04:00
10°
Voelt als: 7.1°
1009.7 hPa
14%
8.3°
6
Windvlaag: 5.1 m/s
15%
05:00
10°
Voelt als: 6.9°
1009.7 hPa
14%
8.3°
6
Windvlaag: 5.2 m/s
14%
06:00
10°
Voelt als: 7.3°
1009.9 hPa
14%
8.3°
6
Windvlaag: 5.2 m/s
14%
07:00
11°
1009.9 hPa
14%
8.7°
6
Windvlaag: 5.2 m/s
16%
08:00
12°
1010.0 hPa
14%
8.9°
6
Windvlaag: 5.6 m/s
22%
09:00
13°
1010.1 hPa
14%
8.8°
7
Windvlaag: 5.7 m/s
21%
10:00
14°
1010.5 hPa
15%
8.3°
7
Windvlaag: 5.5 m/s
32%
11:00
15°
1010.5 hPa
21%
8.0°
7
Windvlaag: 5.3 m/s
36%
12:00
16°
1010.6 hPa
66%
7.9°
7
Windvlaag: 5.2 m/s
38%
13:00
16°
1010.6 hPa
65%
7.7°
7
Windvlaag: 4.8 m/s
39%
14:00
17°
1010.7 hPa
61%
8.0°
7
Windvlaag: 4.5 m/s
33%
15:00
17°
1010.6 hPa
74%
7.8°
7
Windvlaag: 4.9 m/s
44%
16:00
17°
1010.7 hPa
61%
7.6°
6
Windvlaag: 4.5 m/s
76%
17:00
17°
1010.7 hPa
18%
7.4°
6
Windvlaag: 4 m/s
62%
18:00
16°
1011.0 hPa
16%
7.6°
6
Windvlaag: 3.6 m/s
55%
19:00
16°
1011.1 hPa
17%
8.0°
5
Windvlaag: 3.5 m/s
36%
20:00
15°
1011.3 hPa
22%
8.9°
4
Windvlaag: 2.4 m/s
31%
21:00
14°
1011.7 hPa
22%
9.2°
3
Windvlaag: 1.7 m/s
35%
22:00
13°
1012.2 hPa
21%
8.9°
3
Windvlaag: 1.6 m/s
33%
23:00
12°
1012.6 hPa
22%
9.1°
3
Windvlaag: 1.6 m/s
23%
 05:01     21:57    Daglengte: 16:56 Dinsdag 18 Jun
00:00
11°
1012.6 hPa
24%
9.1°
3
Windvlaag: 1.9 m/s
16%
01:00
11°
1012.8 hPa
22%
8.8°
3
Windvlaag: 2.3 m/s
16%
02:00
10°
1012.8 hPa
19%
8.5°
3
Windvlaag: 2.4 m/s
28%
03:00
10°
Voelt als: 8.7°
1012.7 hPa
16%
8.3°
2
Windvlaag: 2.4 m/s
30%
04:00
Voelt als: 8.2°
1012.6 hPa
14%
8.0°
2
Windvlaag: 2.4 m/s
30%
05:00
Voelt als: 7.8°
1012.5 hPa
14%
7.7°
2
Windvlaag: 2.3 m/s
25%
06:00
Voelt als: 7.9°
1012.7 hPa
14%
7.8°
2
Windvlaag: 2.4 m/s
55%
07:00
10°
1013.0 hPa
16%
8.5°
3
Windvlaag: 2.3 m/s
73%
08:00
11°
1013.1 hPa
14%
8.6°
3
Windvlaag: 2.1 m/s
64%
09:00
12°
1013.1 hPa
14%
8.1°
3
Windvlaag: 2.2 m/s
66%
10:00
14°
1012.9 hPa
14%
7.6°
3
Windvlaag: 2.6 m/s
59%
11:00
15°
1012.8 hPa
14%
7.0°
3
Windvlaag: 2.8 m/s
55%
12:00
16°
1012.5 hPa
14%
6.8°
3
Windvlaag: 2.6 m/s
44%
13:00
16°
1012.3 hPa
15%
6.8°
3
Windvlaag: 2.7 m/s
33%
14:00
17°
1011.9 hPa
14%
6.8°
3
Windvlaag: 2.4 m/s
60%
15:00
17°
1011.4 hPa
14%
7.0°
3
Windvlaag: 2.5 m/s
50%
16:00
18°
1011.0 hPa
21%
6.1°
3
Windvlaag: 2.1 m/s
75%
17:00
18°
1010.6 hPa
21%
6.0°
3
Windvlaag: 2.2 m/s
84%
18:00
18°
1010.3 hPa
24%
6.0°
2
Windvlaag: 1.8 m/s
90%
19:00
17°
1010.2 hPa
31%
6.9°
2
Windvlaag: 1 m/s
83%
20:00
16°
1010.3 hPa
27%
8.3°
2
Windvlaag: 0.6 m/s
80%
21:00
15°
1010.3 hPa
21%
8.6°
2
Windvlaag: 0.9 m/s
90%
22:00
13°
1010.6 hPa
65%
8.6°
3
Windvlaag: 0.3 m/s
92%
23:00
12°
1010.7 hPa
79%
8.9°
2
Windvlaag: -0.4 m/s
96%
 05:01     21:57    Daglengte: 16:56 Woensdag 19 Jun
00:00
12°
1010.6 hPa
72%
9.2°
2
Windvlaag: -0.3 m/s
94%
01:00
11°
1010.4 hPa
21%
9.3°
2
Windvlaag: 0.2 m/s
93%
02:00
11°
1010.0 hPa
21%
9.1°
1
Windvlaag: 0 m/s
92%
03:00
10°
1009.7 hPa
21%
9.0°
2
Windvlaag: -0.2 m/s
66%
04:00
10°
Voelt als: 9.1°
1009.4 hPa
21%
8.9°
2
Windvlaag: -0.1 m/s
71%
05:00
Voelt als: 8.7°
1009.3 hPa
21%
8.9°
2
Windvlaag: -0.2 m/s
65%
06:00
10°
Voelt als: 9.2°
1009.4 hPa
21%
9.2°
1
Windvlaag: -0.2 m/s
68%
07:00
10°
1009.4 hPa
21%
9.2°
2
Windvlaag: 0.2 m/s
63%
08:00
11°
1009.2 hPa
21%
9.3°
3
Windvlaag: 1.3 m/s
66%
09:00
12°
1009.1 hPa
21%
9.3°
3
Windvlaag: 1 m/s
64%
10:00
14°
1008.9 hPa
81%
9.1°
3
Windvlaag: 0.9 m/s
36%
11:00
15°
1008.6 hPa
45%
8.8°
3
Windvlaag: 1.1 m/s
41%
12:00
16°
1008.4 hPa 2.6 mm
22%
8.4°
4
Windvlaag: 1.1 m/s
66%
13:00
16°
1008.3 hPa 3.1 mm
24%
7.6°
4
Windvlaag: 0.6 m/s
83%
14:00
17°
1007.6 hPa
29%
8.1°
4
Windvlaag: 5.4 m/s
83%
15:00
16°
1007.6 hPa
90%
8.4°
4
Windvlaag: 5.5 m/s
81%
16:00
16°
1007.5 hPa
100%
8.6°
4
Windvlaag: 6.1 m/s
72%
17:00
16°
1007.4 hPa 3.1 mm
100%
8.7°
5
Windvlaag: 8.5 m/s
55%
Temp/Neerslag /Baro Onweer/Dauwpunt
    Temp Baro Neerslag Dauwpunt Wind Bewolking  
 05:01     21:56    Daglengte: 16:55 Vandaag
19:00
14°
1006.3 hPa 1.4 mm 12.1°
7
36%
22:00
12°
1008.1 hPa 0.8 mm 9.9°
5
36%
 05:01     21:56    Daglengte: 16:55 Morgen
01:00
11°
1009.3 hPa   8.8°
5
61%
04:00
10°
Voelt als: 7.1°
1009.7 hPa   8.3°
6
15%
07:00
11°
1009.9 hPa   8.7°
6
16%
10:00
14°
1010.5 hPa   8.3°
7
32%
13:00
16°
1010.6 hPa   7.7°
7
39%
16:00
17°
1010.7 hPa   7.6°
6
76%
19:00
16°
1011.1 hPa   8.0°
5
36%
22:00
13°
1012.2 hPa   8.9°
3
33%
 05:01     21:57    Daglengte: 16:56 Dinsdag 18 Jun
01:00
11°
1012.8 hPa   8.8°
3
16%
04:00
Voelt als: 8.2°
1012.6 hPa   8.0°
2
30%
07:00
10°
1013.0 hPa   8.5°
3
73%
10:00
14°
1012.9 hPa   7.6°
3
59%
13:00
16°
1012.3 hPa   6.8°
3
33%
16:00
18°
1011.0 hPa   6.1°
3
75%
19:00
17°
1010.2 hPa   6.9°
2
83%
22:00
13°
1010.6 hPa   8.6°
3
92%
 05:01     21:57    Daglengte: 16:56 Woensdag 19 Jun
01:00
11°
1010.4 hPa   9.3°
2
93%
04:00
10°
Voelt als: 9.1°
1009.4 hPa   8.9°
2
71%
07:00
10°
1009.4 hPa   9.2°
2
63%
10:00
14°
1008.9 hPa   9.1°
3
36%
13:00
16°
1008.3 hPa 5.7 mm 7.6°
4
83%
16:00
16°
1007.5 hPa   8.6°
4
72%
19:00
15°
1007.2 hPa 9.3 mm 8.6°
5
66%
22:00
12°
1008.6 hPa 16.3 mm 8.3°
3
67%
 05:01     21:57    Daglengte: 16:56 Donderdag 20 Jun
01:00
10°
1008.8 hPa 16.3 mm 8.0°
3
56%
04:00
10°
Voelt als: 7.9°
1009.0 hPa 16.3 mm 7.8°
3
58%
07:00
10°
Voelt als: 7.7°
1009.1 hPa 16.3 mm 7.8°
4
61%
10:00
12°
1009.8 hPa 16.5 mm 7.6°
4
55%
13:00
15°
1010.4 hPa 18.2 mm 7.0°
4
49%
16:00
14°
1011.3 hPa 21.3 mm 6.8°
4
44%
19:00
13°
1012.3 hPa 23.4 mm 6.6°
4
39%
22:00
11°
1014.0 hPa 24.0 mm 6.5°
3
35%
 05:02     21:58    Daglengte: 16:56 Vrijdag 21 Jun
01:00
Voelt als: 7.5°
1015.7 hPa 24.0 mm 6.1°
2
31%
04:00
Voelt als: 7.2°
1016.8 hPa 24.0 mm 6.0°
2
28%
07:00
Voelt als: 7.3°
1018.0 hPa 24.0 mm 6.2°
2
24%
10:00
11°
1018.9 hPa 24.1 mm 6.3°
2
53%
13:00
15°
1019.7 hPa 24.8 mm 5.1°
3
81%
16:00
15°
1020.3 hPa 25.6 mm 5.8°
2
82%
19:00
15°
1020.8 hPa 26.0 mm 6.2°
2
82%
22:00
12°
1021.8 hPa 26.4 mm 7.0°
1
68%
 05:02     21:58    Daglengte: 16:56 Zaterdag 22 Jun
01:00
10°
1022.7 hPa 26.8 mm 7.1°
1
54%
04:00
10°
Voelt als: 9.6°
1022.8 hPa 26.9 mm 7.2°
1
64%
07:00
10°
1022.8 hPa 26.9 mm 7.7°
2
74%
10:00
13°
1022.9 hPa 27.0 mm 7.8°
3
82%
13:00
17°
1023.0 hPa 27.3 mm 6.8°
4
91%
16:00
16°
1022.7 hPa 27.8 mm 6.6°
3
52%
19:00
16°
1022.5 hPa 28.3 mm 6.5°
2
13%
22:00
13°
1022.8 hPa 28.3 mm 6.7°
2
50%
 05:02     21:58    Daglengte: 16:56 Zondag 23 Jun
01:00
Voelt als: 8.2°
1023.1 hPa 28.3 mm 6.1°
2
86%
04:00
10°
1022.7 hPa 28.3 mm 7.6°
2
87%
07:00
11°
1022.3 hPa 28.3 mm 9.2°
1
87%
10:00
15°
1022.3 hPa 28.4 mm 9.7°
2
85%
13:00
18°
1022.2 hPa 28.9 mm 9.2°
3
83%
16:00
17°
1022.1 hPa   9.8°
3
87%
19:00
16°
1022.0 hPa 58.8 mm 10.3°
2
91%
 05:03     21:58    Daglengte: 16:55 Maandag 24 Jun
01:00
11°
1023.1 hPa 62.5 mm 9.4°
3
45%
07:00
12°
1023.4 hPa 66.7 mm 10.3°
3
9%
13:00
18°
1024.1 hPa 68.6 mm 8.9°
5
9%
19:00
16°
1025.2 hPa 72.9 mm 7.9°
4
3%
 05:03     21:58    Daglengte: 16:55 Dinsdag 25 Jun
01:00
10°
1027.3 hPa 75.6 mm 7.6°
2
0%
07:00
11°
1028.0 hPa 77.5 mm 9.4°
2
6%
13:00
19°
1028.6 hPa 80.0 mm 9.6°
4
79%
19:00
20°
1028.0 hPa 82.2 mm 9.3°
3
89%
 05:03     21:58    Daglengte: 16:55 Woensdag 26 Jun
01:00
14°
1029.4 hPa 82.6 mm 9.2°
1
27%
07:00
Voelt als: 6.8°
1020.5 hPa 82.7 mm 7.6°
5
0%
13:00
16°
1025.4 hPa 0.1 mm 10.0°
3
40%
19:00
16°
1024.3 hPa 0.3 mm 11.3°
2
62%
 05:04     21:58    Daglengte: 16:54 Donderdag 27 Jun
01:00
10°
1023.8 hPa 0.3 mm 9.1°
1
57%
07:00
10°
1021.8 hPa 0.6 mm 9.1°
2
55%
13:00
15°
1020.4 hPa 1.2 mm 11.1°
2
66%
19:00
16°
1018.3 hPa 1.2 mm 12.1°
2
68%
 05:05     21:58    Daglengte: 16:53 Vrijdag 28 Jun
01:00
11°
1018.1 hPa 0.8 mm 9.6°
2
55%
07:00
11°
1017.1 hPa 0.7 mm 10.2°
2
52%
13:00
17°
1016.7 hPa 0.4 mm 12.0°
3
59%
19:00
17°
1015.7 hPa 1.1 mm 12.9°
3
66%
 05:05     21:58    Daglengte: 16:53 Zaterdag 29 Jun
01:00
11°
1015.9 hPa 0.6 mm 9.8°
2
52%
07:00
11°
1015.0 hPa 0.3 mm 9.8°
2
54%
13:00
16°
1014.5 hPa 0.5 mm 11.8°
2
59%
19:00
16°
1013.3 hPa 1.5 mm 12.2°
2
64%
 05:06     21:57    Daglengte: 16:51 Zondag 30 Jun
01:00
11°
1012.8 hPa 0.6 mm 9.8°
2
56%
07:00
11°
1011.8 hPa 0.6 mm 9.9°
2
56%
13:00
15°
1012.2 hPa 0.9 mm 11.2°
3
66%
19:00
15°
1012.0 hPa 1.8 mm 11.8°
2
63%
 05:07     21:57    Daglengte: 16:50 Maandag 01 Jul
01:00
10°
1013.1 hPa 0.4 mm 8.9°
2
45%
07:00
10°
Voelt als: 8.7°
1013.1 hPa 0.3 mm 8.8°
2
30%
13:00
16°
1013.6 hPa 0.7 mm 11.0°
3
50%
  CAPE Lifted Index Hail Supercell Tornado SRH 3km CL BTM PRES CL TOP PRES Swiss DWD icon SMHI TS
 05:01     21:56    Daglengte: 16:55 Vandaag
18:00 17 J/kg 0.7 K 0 % 0 % 0 % 0 m²/s² 0 0 2.26 80
19:00 330 J/kg -0.7 K 0 % 0 % 0 % 0 m²/s² 0 0 2.9 80
20:00 509 J/kg -1.5 K 0 % 0 % 0 % 0 m²/s² 0 0 1.56 80
21:00 292 J/kg 0.1 K 0 % 0 % 0 % 0 m²/s² 0 0 1.93 2
22:00 309 J/kg 0.4 K 0 % 0 % 0 % 0 m²/s² 0 0 1.84 2
23:00 286 J/kg 0.8 K 0 % 0 % 0 % 0 m²/s² 0 0 2.36 2
 05:01     21:56    Daglengte: 16:55 Morgen
00:00 198 J/kg 1.7 K 0 % 0 % 0 % 0 m²/s² 0 0 4.28 2
01:00 98 J/kg 2.7 K 0 % 0 % 0 % 0 m²/s² 0 0 6 3
02:00 19 J/kg 3.9 K 0 % 0 % 0 % 0 m²/s² 0 0 7.65 3
03:00 0 J/kg 4.4 K 0 % 0 % 0 % 0 m²/s² 0 0 8.99 3
04:00 0 J/kg 4.5 K 0 % 0 % 0 % 0 m²/s² 0 0 9.09 1
05:00 0 J/kg 4.6 K 0 % 0 % 0 % 0 m²/s² 0 0 8.26 1
06:00 0 J/kg 4.5 K 0 % 0 % 0 % 0 m²/s² 0 0 7.53 0
07:00 28 J/kg 3.9 K 0 % 0 % 0 % 0 m²/s² 0 0 6.93 2
08:00 83 J/kg 2.9 K 0 % 0 % 0 % 0 m²/s² 0 0 5.93 0
09:00 114 J/kg 2.0 K 0 % 0 % 0 % 0 m²/s² 0 0 5.12 2
10:00 146 J/kg 1.4 K 0 % 0 % 0 % 0 m²/s² 0 0 4.7 1
11:00 158 J/kg 1.3 K 0 % 0 % 0 % 0 m²/s² 0 0 4.6 3
12:00 201 J/kg 1.0 K 0 % 0 % 0 % 0 m²/s² 0 0 3.94 3
13:00 203 J/kg 1.1 K 0 % 0 % 0 % 0 m²/s² 0 0 3.98 2
14:00 222 J/kg 1.1 K 0 % 0 % 0 % 0 m²/s² 0 0 3.65 2
15:00 273 J/kg 0.5 K 0 % 0 % 0 % 0 m²/s² 0 0 3.05 3
16:00 276 J/kg 0.3 K 0 % 0 % 0 % 0 m²/s² 0 0 2.79 3
17:00 284 J/kg 0.1 K 0 % 0 % 0 % 0 m²/s² 0 0 2.74 3
18:00 276 J/kg 0.1 K 0 % 0 % 0 % 0 m²/s² 0 0 3.04 3
19:00 196 J/kg 0.9 K 0 % 0 % 0 % 0 m²/s² 0 0 4.47 2
20:00 124 J/kg 1.7 K 0 % 0 % 0 % 0 m²/s² 0 0 5.75 2
21:00 64 J/kg 2.4 K 0 % 0 % 0 % 0 m²/s² 0 0 6.9 3
22:00 23 J/kg 3.3 K 0 % 0 % 0 % 0 m²/s² 0 0 7.92 3
23:00 3 J/kg 3.9 K 0 % 0 % 0 % 0 m²/s² 0 0 8.79 2
 05:01     21:57    Daglengte: 16:56 Dinsdag 18 Jun
00:00 0 J/kg 3.8 K 0 % 0 % 0 % 0 m²/s² 0 0 8.81 2
01:00 0 J/kg 4.5 K 0 % 0 % 0 % 0 m²/s² 0 0 9.81 2
02:00 0 J/kg 5.5 K 0 % 0 % 0 % 0 m²/s² 0 0 10.81 3
03:00 0 J/kg 5.6 K 0 % 0 % 0 % 0 m²/s² 0 0 10.76 3
04:00 0 J/kg 6.2 K 0 % 0 % 0 % 0 m²/s² 0 0 11.51 2
05:00 0 J/kg 6.6 K 0 % 0 % 0 % 0 m²/s² 0 0 11.91 2
06:00 1 J/kg 7.0 K 0 % 0 % 0 % 0 m²/s² 0 0 12.31 2
07:00 1 J/kg 7.3 K 0 % 0 % 0 % 0 m²/s² 0 0 12.64 3
08:00 1 J/kg 7.0 K 0 % 0 % 0 % 0 m²/s² 0 0 12.19 3
09:00 15 J/kg 6.3 K 0 % 0 % 0 % 0 m²/s² 0 0 11.22 3
10:00 5 J/kg 6.6 K 0 % 0 % 0 % 0 m²/s² 0 0 11.16 3
11:00 1 J/kg 6.6 K 0 % 0 % 0 % 0 m²/s² 0 0 11.07 3
12:00 11 J/kg 6.0 K 0 % 0 % 0 % 0 m²/s² 0 0 9.84 3
13:00 18 J/kg 5.5 K 0 % 0 % 0 % 0 m²/s² 0 0 8.2 1
14:00 35 J/kg 5.2 K 0 % 0 % 0 % 0 m²/s² 0 0 7.15 3
15:00 61 J/kg 4.8 K 0 % 0 % 0 % 0 m²/s² 0 0 6.51 3
16:00 60 J/kg 4.6 K 0 % 0 % 0 % 0 m²/s² 0 0 6.07 3
17:00 60 J/kg 4.5 K 0 % 0 % 0 % 0 m²/s² 0 0 5.82 3
18:00 63 J/kg 4.3 K 0 % 0 % 0 % 0 m²/s² 0 0 5.62 3
19:00 80 J/kg 4.4 K 0 % 0 % 0 % 0 m²/s² 0 0 5.72 3
20:00 80 J/kg 4.4 K 0 % 0 % 0 % 0 m²/s² 0 0 5.75 3
21:00 61 J/kg 4.9 K 0 % 0 % 0 % 0 m²/s² 0 0 6.31 3
22:00 7 J/kg 5.5 K 0 % 0 % 0 % 0 m²/s² 0 0 7.12 3
23:00 2 J/kg 5.7 K 0 % 0 % 0 % 0 m²/s² 0 0 7.32 3
 05:01     21:57    Daglengte: 16:56 Woensdag 19 Jun
00:00 10 J/kg 5.6 K 0 % 0 % 0 % 0 m²/s² 0 0 6.23 3
01:00 0 J/kg 5.3 K 0 % 0 % 0 % 0 m²/s² 0 0 5.63 3
02:00 0 J/kg 5.2 K 0 % 0 % 0 % 0 m²/s² 0 0 5.62 3
03:00 0 J/kg 5.3 K 0 % 0 % 0 % 0 m²/s² 0 0 5.9 3
04:00 0 J/kg 5.5 K 0 % 0 % 0 % 0 m²/s² 0 0 6.13 45
05:00 0 J/kg 5.8 K 0 % 0 % 0 % 0 m²/s² 0 0 6.79 3
06:00 0 J/kg 5.8 K 0 % 0 % 0 % 0 m²/s² 0 0 8.26 3
07:00 0 J/kg 6.2 K 0 % 0 % 0 % 0 m²/s² 0 0 10.1 3
08:00 1 J/kg 6.5 K 0 % 0 % 0 % 0 m²/s² 0 0 10.61 3
09:00 8 J/kg 6.1 K 0 % 0 % 0 % 0 m²/s² 0 0 10.3 3
10:00 20 J/kg 5.4 K 0 % 0 % 0 % 0 m²/s² 0 0 9.84 2
11:00 33 J/kg 5.2 K 0 % 0 % 0 % 0 m²/s² 0 0 10.36 2
12:00 60 J/kg 5.2 K 0 % 0 % 0 % 0 m²/s² 0 0 10.78 1
13:00 79 J/kg 5.4 K 0 % 0 % 0 % 0 m²/s² 0 0 11.49 3
14:00 117 J/kg 4.8 K 0 % 0 % 0 % 0 m²/s² 0 0 9.84 3
15:00 151 J/kg 4.0 K 0 % 0 % 0 % 0 m²/s² 0 0 5.8 3
16:00 195 J/kg 3.7 K 0 % 0 % 0 % 0 m²/s² 0 0 5.56 2
17:00 129 J/kg 4.2 K 0 % 0 % 0 % 0 m²/s² 0 0 6.45 2
Temp Baro Wind Neerslag
  EWN Forecast EWN WRFDA DWD ICON FMI HIRLAM MET Norway GFS
 05:01     21:56    Daglengte: 16:55 Vandaag
19:00 13.8° 1006.3 hPa 7.0 m/s 1.4 mm 14.4° 1004.9 hPa 7.2 m/s 1.2 mm 14.1° 1006.8 hPa 9.2 m/s 1.2 mm 15.7° 1006.3 hPa 6.7 m/s 0.0 mm 13.3° 1006.3 hPa 5.3 m/s 2.8 mm 13.6° 1006.9 hPa 7.6 m/s
22:00 12.2° 1008.1 hPa 4.6 m/s 0.8 mm 12.9° 1006.8 hPa 4.3 m/s 7.2 mm 12.1° 1008.0 hPa 4.9 m/s 0.9 mm 14.3° 1008.0 hPa 5.9 m/s 0.0 mm 11.5° 1008.3 hPa 3.5 m/s 0.9 mm 10.5° 1008.3 hPa 3.7 m/s
 05:01     21:56    Daglengte: 16:55 Morgen
01:00 10.9° 1009.3 hPa 4.8 m/s 0.0 mm 11.7° 1007.9 hPa 5.0 m/s 18.8 mm 10.8° 1009.4 hPa 5.5 m/s 0.1 mm 12.5° 1009.7 hPa 4.0 m/s 0.0 mm 10.5° 1009.4 hPa 4.5 m/s 0.0 mm 10.1° 1009.4 hPa 4.5 m/s
04:00 9.8° 1009.7 hPa 5.5 m/s 0.0 mm 8.7° 1008.2 hPa 5.5 m/s 21.2 mm 9.5° 1009.7 hPa 5.6 m/s 0.0 mm 12.6° 1010.5 hPa 5.7 m/s 0.0 mm 9.5° 1009.7 hPa 4.5 m/s 0.0 mm 8.3° 1009.3 hPa 5.3 m/s
07:00 10.7° 1009.9 hPa 5.7 m/s 0.0 mm 11.2° 1008.2 hPa 6.9 m/s 21.2 mm 10.3° 1009.7 hPa 7.1 m/s 0.0 mm 12.6° 1010.8 hPa 4.7 m/s 0.0 mm 10.6° 1009.9 hPa 4.5 m/s 0.0 mm 9.8° 1009.5 hPa 5.9 m/s
10:00 14.1° 1010.5 hPa 7.1 m/s 0.0 mm 14.3° 1008.9 hPa 8.0 m/s 21.2 mm 13.7° 1010.6 hPa 9.3 m/s 0.0 mm 14.1° 1011.6 hPa 5.2 m/s 0.0 mm 14.2° 1009.8 hPa 6.4 m/s 0.0 mm 13.5° 1009.9 hPa 7.6 m/s
13:00 16.0° 1010.6 hPa 7.0 m/s 0.0 mm 15.7° 1009.1 hPa 7.9 m/s 21.2 mm 16.3° 1010.4 hPa 9.7 m/s 0.0 mm 15.5° 1011.6 hPa 4.3 m/s 0.0 mm 16.5° 1010.6 hPa 6.6 m/s 0.5 mm 15.5° 1010.3 hPa 7.6 m/s
16:00 16.8° 1010.7 hPa 6.3 m/s 0.0 mm 16.6° 1009.5 hPa 7.2 m/s 21.3 mm 17.0° 1010.7 hPa 8.5 m/s 0.0 mm 16.6° 1011.1 hPa 4.8 m/s 0.0 mm 17.5° 1010.5 hPa 5.3 m/s 0.0 mm 15.6° 1010.6 hPa 6.7 m/s
19:00 16.1° 1011.1 hPa 4.8 m/s 0.0 mm 16.2° 1009.8 hPa 6.2 m/s 21.4 mm 15.9° 1011.2 hPa 6.7 m/s 0.0 mm 16.3° 1011.6 hPa 3.9 m/s 0.0 mm 16.2° 1010.8 hPa 3.7 m/s 0.0 mm 14.8° 1011.2 hPa 4.4 m/s
22:00 12.9° 1012.2 hPa 2.9 m/s 0.0 mm 9.9° 1010.9 hPa 3.3 m/s 21.4 mm 12.8° 1012.3 hPa 3.6 m/s 0.0 mm 15.5° 1012.4 hPa 2.2 m/s 0.0 mm 12.7° 1012.2 hPa 2.3 m/s 0.0 mm 10.1° 1012.7 hPa 2.6 m/s
 05:01     21:57    Daglengte: 16:56 Dinsdag 18 Jun
01:00 10.7° 1012.8 hPa 2.8 m/s 0.0 mm 7.3° 1011.5 hPa 3.3 m/s 21.4 mm 10.8° 1013.2 hPa 3.2 m/s 0.0 mm 14.8° 1012.5 hPa 2.4 m/s 0.0 mm 10.3° 1012.8 hPa 2.3 m/s 0.0 mm 8.0° 1013.0 hPa 2.6 m/s
04:00 9.4° 1012.6 hPa 2.5 m/s 0.0 mm 8.1° 1011.4 hPa 2.8 m/s 21.4 mm 9.4° 1013.0 hPa 2.8 m/s 0.0 mm 14.2° 1012.6 hPa 1.9 m/s 0.0 mm 8.8° 1012.7 hPa 2.1 m/s 0.0 mm 6.7° 1012.6 hPa 2.6 m/s
07:00 10.3° 1013.0 hPa 2.6 m/s 0.0 mm 9.3° 1011.5 hPa 3.2 m/s 21.4 mm 10.3° 1013.4 hPa 3.2 m/s 0.0 mm 14.1° 1012.8 hPa 2.7 m/s 0.0 mm 10.1° 1013.1 hPa 1.8 m/s 0.0 mm 8.8° 1012.6 hPa 2.9 m/s
10:00 13.7° 1012.9 hPa 3.3 m/s 0.0 mm 13.5° 1011.6 hPa 3.5 m/s 21.4 mm 13.1° 1013.6 hPa 4.0 m/s 0.0 mm 14.8° 1012.9 hPa 3.4 m/s 0.0 mm 14.0° 1012.9 hPa 2.9 m/s 0.0 mm 13.4° 1012.8 hPa 3.4 m/s
13:00 16.3° 1012.3 hPa 3.2 m/s 0.0 mm 16.1° 1010.7 hPa 2.7 m/s 21.4 mm 16.2° 1012.6 hPa 3.4 m/s 0.0 mm 15.9° 1012.5 hPa 2.8 m/s 0.0 mm 17.1° 1012.1 hPa 3.3 m/s 0.0 mm 16.2° 1012.4 hPa 3.3 m/s
16:00 17.7° 1011.0 hPa 2.8 m/s 0.0 mm 17.5° 1009.6 hPa 2.6 m/s 21.4 mm 17.7° 1011.5 hPa 3.3 m/s 0.0 mm 18.1° 1011.1 hPa 2.6 m/s 0.0 mm 16.9° 1011.4 hPa 3.1 m/s
19:00 17.1° 1010.2 hPa 2.2 m/s 0.0 mm 17.2° 1008.8 hPa 2.6 m/s 21.4 mm 17.3° 1010.3 hPa 2.1 m/s 0.0 mm 17.3° 1010.4 hPa 1.9 m/s 0.0 mm 15.7° 1010.5 hPa 2.0 m/s
22:00 13.3° 1010.6 hPa 2.7 m/s 0.0 mm 12.1° 1008.9 hPa 2.8 m/s 21.4 mm 13.5° 1010.6 hPa 3.3 m/s 0.0 mm 13.3° 1010.8 hPa 2.7 m/s 0.0 mm 12.0° 1011.1 hPa 1.2 m/s
 05:01     21:57    Daglengte: 16:56 Woensdag 19 Jun
01:00 11.3° 1010.4 hPa 1.5 m/s 0.0 mm 11.4° 1008.3 hPa 1.9 m/s 21.4 mm 11.3° 1009.7 hPa 1.1 m/s 0.0 mm 10.9° 1010.7 hPa 1.4 m/s 0.0 mm 10.2° 1010.2 hPa 1.3 m/s
04:00 9.9° 1009.4 hPa 1.9 m/s 0.0 mm 10.7° 1007.6 hPa 2.8 m/s 21.7 mm 9.8° 1008.7 hPa 1.4 m/s 0.0 mm 9.1° 1009.7 hPa 1.6 m/s 0.0 mm 9.3° 1009.2 hPa 1.9 m/s
07:00 10.3° 1009.4 hPa 1.5 m/s 0.0 mm 10.5° 1006.7 hPa 3.5 m/s 22.7 mm 10.7° 1008.4 hPa 1.2 m/s 0.0 mm 10.2° 1009.7 hPa 0.9 m/s 0.0 mm 9.2° 1008.5 hPa 1.5 m/s
10:00 13.6° 1008.9 hPa 3.0 m/s 0.0 mm 13.2° 1007.1 hPa 3.8 m/s 22.8 mm 14.2° 1007.9 hPa 3.3 m/s 0.0 mm 13.5° 1009.2 hPa 2.4 m/s 11.5° 1008.4 hPa 1.9 m/s
13:00 16.4° 1008.3 hPa 3.9 m/s 5.7 mm 15.8° 1006.3 hPa 3.6 m/s 22.8 mm 17.1° 1007.2 hPa 4.0 m/s 0.0 mm 16.9° 1008.6 hPa 3.8 m/s 15.9° 1007.8 hPa 2.7 m/s
16:00 15.9° 1007.5 hPa 4.2 m/s 0.0 mm 15.6° 1006.0 hPa 4.0 m/s 23.8 mm 16.2° 1006.8 hPa 5.3 m/s 0.1 mm 15.9° 1008.3 hPa 4.0 m/s 14.6° 1007.3 hPa 4.8 m/s
19:00 15.1° 1007.2 hPa 5.0 m/s 9.3 mm 15.2° 1005.6 hPa 6.8 m/s 27.1 mm 15.4° 1006.7 hPa 5.5 m/s 0.3 mm 14.9° 1008.0 hPa 4.2 m/s 13.9° 1007.2 hPa 3.4 m/s
22:00 11.6° 1008.6 hPa 3.4 m/s 16.3 mm 11.8° 1008.6 hPa 3.5 m/s 9.2° 1008.3 hPa 2.9 m/s 16.3 mm
 05:01     21:57    Daglengte: 16:56 Donderdag 20 Jun
01:00 10.0° 1008.8 hPa 3.1 m/s 16.3 mm 10.3° 1008.9 hPa 3.1 m/s 6.9° 1008.2 hPa 3.0 m/s 16.3 mm
04:00 9.7° 1009.0 hPa 3.4 m/s 16.3 mm 10.1° 1009.0 hPa 3.5 m/s 5.6° 1008.2 hPa 3.3 m/s 16.3 mm
07:00 9.7° 1009.1 hPa 3.8 m/s 16.3 mm 9.9° 1009.2 hPa 3.8 m/s 7.8° 1008.2 hPa 4.4 m/s 16.3 mm
10:00 12.2° 1009.8 hPa 4.0 m/s 16.5 mm 12.2° 1009.9 hPa 3.8 m/s 11.9° 1008.7 hPa 5.5 m/s 16.5 mm
13:00 14.5° 1010.4 hPa 4.1 m/s 18.2 mm 14.6° 1010.6 hPa 3.9 m/s 13.5° 1008.7 hPa 6.4 m/s 18.2 mm
16:00 13.9° 1011.3 hPa 4.2 m/s 21.3 mm 13.8° 1011.5 hPa 4.0 m/s 14.2° 1009.0 hPa 5.7 m/s 21.3 mm
19:00 13.1° 1012.3 hPa 4.2 m/s 23.4 mm 13.1° 1012.5 hPa 4.2 m/s 13.2° 1009.7 hPa 4.4 m/s 23.4 mm
22:00 10.6° 1014.0 hPa 2.9 m/s 24.0 mm 10.8° 1014.2 hPa 3.0 m/s 8.9° 1011.4 hPa 2.6 m/s 24.0 mm
 05:02     21:58    Daglengte: 16:56 Vrijdag 21 Jun
01:00 8.3° 1015.7 hPa 1.8 m/s 24.0 mm 8.5° 1016.0 hPa 1.7 m/s 6.5° 1012.5 hPa 2.3 m/s 24.0 mm
04:00 8.1° 1016.8 hPa 1.7 m/s 24.0 mm 8.3° 1017.1 hPa 1.7 m/s 5.0° 1013.5 hPa 2.0 m/s 24.0 mm
07:00 8.1° 1018.0 hPa 1.7 m/s 24.0 mm 8.2° 1018.3 hPa 1.7 m/s 7.0° 1014.6 hPa 1.7 m/s 24.0 mm
10:00 11.5° 1018.9 hPa 2.4 m/s 24.1 mm 11.4° 1019.1 hPa 2.4 m/s 11.6° 1016.0 hPa 2.6 m/s 24.1 mm
13:00 14.7° 1019.7 hPa 3.0 m/s 24.8 mm 14.7° 1020.0 hPa 3.1 m/s 14.3° 1016.8 hPa 2.5 m/s 24.8 mm
16:00 14.8° 1020.3 hPa 2.4 m/s 25.6 mm 14.8° 1020.5 hPa 2.4 m/s 13.9° 1017.2 hPa 2.3 m/s 25.6 mm
19:00 15.0° 1020.8 hPa 1.6 m/s 26.0 mm 15.0° 1021.1 hPa 1.7 m/s 14.5° 1017.3 hPa 0.5 m/s 26.0 mm
22:00 12.3° 1021.8 hPa 1.3 m/s 26.4 mm 12.4° 1022.1 hPa 1.3 m/s 10.9° 1018.5 hPa 1.8 m/s 26.4 mm
 05:02     21:58    Daglengte: 16:56 Zaterdag 22 Jun
01:00 9.9° 1022.7 hPa 1.1 m/s 26.8 mm 9.9° 1023.1 hPa 0.9 m/s 9.6° 1018.5 hPa 2.7 m/s 26.8 mm
04:00 9.8° 1022.8 hPa 1.3 m/s 26.9 mm 10.0° 1023.2 hPa 1.2 m/s 7.1° 1017.8 hPa 2.3 m/s 26.9 mm
07:00 10.1° 1022.8 hPa 1.6 m/s 26.9 mm 10.1° 1023.3 hPa 1.5 m/s 9.7° 1017.7 hPa 2.3 m/s 26.9 mm
10:00 13.3° 1022.9 hPa 2.6 m/s 27.0 mm 13.4° 1023.4 hPa 2.5 m/s 11.9° 1017.4 hPa 3.9 m/s 27.0 mm
13:00 16.6° 1023.0 hPa 3.7 m/s 27.3 mm 16.7° 1023.5 hPa 3.5 m/s 16.0° 1017.3 hPa 5.7 m/s 27.3 mm
16:00 16.5° 1022.7 hPa 3.2 m/s 27.8 mm 16.6° 1023.2 hPa 3.0 m/s 15.2° 1017.0 hPa 5.9 m/s 27.8 mm
19:00 16.3° 1022.5 hPa 2.5 m/s 28.3 mm 16.5° 1023.0 hPa 2.4 m/s 13.6° 1016.8 hPa 3.2 m/s 28.3 mm
22:00 12.7° 1022.8 hPa 2.2 m/s 28.3 mm 12.8° 1023.4 hPa 2.2 m/s 11.0° 1017.1 hPa 2.5 m/s 28.3 mm
 05:02     21:58    Daglengte: 16:56 Zondag 23 Jun
01:00 9.2° 1023.1 hPa 2.0 m/s 28.3 mm 9.1° 1023.7 hPa 2.0 m/s 10.2° 1016.5 hPa 2.2 m/s 28.3 mm
04:00 10.2° 1022.7 hPa 1.7 m/s 28.3 mm 10.2° 1023.4 hPa 1.6 m/s 10.7° 1015.5 hPa 2.1 m/s 28.3 mm
07:00 11.3° 1022.3 hPa 1.4 m/s 28.3 mm 11.3° 1023.0 hPa 1.3 m/s 11.7° 1014.6 hPa 2.0 m/s 28.3 mm
10:00 14.6° 1022.3 hPa 2.3 m/s 28.4 mm 14.5° 1023.0 hPa 2.2 m/s 15.7° 1013.5 hPa 3.3 m/s 28.4 mm
13:00 17.5° 1022.2 hPa 3.2 m/s 28.9 mm 17.6° 1023.1 hPa 3.1 m/s 16.6° 1011.9 hPa 4.8 m/s 28.9 mm
16:00 17.0° 1022.1 hPa 2.7 m/s 29.1 mm 17.1° 1023.2 hPa 2.5 m/s 16.7° 1010.1 hPa 5.8 m/s 29.1 mm
19:00 16.3° 1022.0 hPa 2.0 m/s 29.7 mm 16.5° 1023.2 hPa 1.8 m/s 14.2° 1008.4 hPa 3.9 m/s 29.7 mm
 05:03     21:58    Daglengte: 16:55 Maandag 24 Jun
01:00 11.0° 1023.1 hPa 2.9 m/s 31.7 mm 10.9° 1024.9 hPa 2.8 m/s 11.8° 1003.8 hPa 3.9 m/s 31.7 mm
07:00 11.9° 1023.4 hPa 3.3 m/s 33.4 mm 11.8° 1025.6 hPa 3.3 m/s 13.3° 999.2 hPa 3.2 m/s 33.4 mm
13:00 17.5° 1024.1 hPa 5.0 m/s 34.8 mm 17.6° 1026.5 hPa 5.0 m/s 16.7° 997.7 hPa 4.9 m/s 34.8 mm
19:00 16.1° 1025.2 hPa 4.4 m/s 36.9 mm 16.2° 1027.8 hPa 4.5 m/s 14.7° 996.5 hPa 3.5 m/s 36.9 mm
 05:03     21:58    Daglengte: 16:55 Dinsdag 25 Jun
01:00 10.1° 1027.3 hPa 2.3 m/s 38.5 mm 9.9° 1029.9 hPa 2.4 m/s 12.6° 998.3 hPa 1.0 m/s 38.5 mm
07:00 11.1° 1028.0 hPa 2.1 m/s 38.8 mm 10.9° 1030.5 hPa 2.1 m/s 12.7° 1000.5 hPa 2.3 m/s 38.8 mm
13:00 19.4° 1028.6 hPa 3.7 m/s 40.7 mm 20.0° 1030.7 hPa 3.5 m/s 13.0° 1005.9 hPa 6.3 m/s 40.7 mm
19:00 19.6° 1028.0 hPa 3.2 m/s 41.2 mm 20.2° 1029.6 hPa 2.8 m/s 13.0° 1011.0 hPa 7.7 m/s 41.2 mm
 05:03     21:58    Daglengte: 16:55 Woensdag 26 Jun
01:00 13.6° 1029.4 hPa 1.0 m/s 41.4 mm 13.8° 1030.5 hPa 0.5 m/s 11.7° 1016.9 hPa 6.6 m/s 41.4 mm
07:00 9.4° 1020.5 hPa 4.9 m/s 41.4 mm 9.4° 1020.5 hPa 4.9 m/s 41.4 mm
13:00 15.6° 1025.4 hPa 2.9 m/s 0.1 mm
19:00 15.9° 1024.3 hPa 2.2 m/s 0.3 mm
 05:04     21:58    Daglengte: 16:54 Donderdag 27 Jun
01:00 10.3° 1023.8 hPa 1.4 m/s 0.3 mm
07:00 10.2° 1021.8 hPa 1.7 m/s 0.6 mm
13:00 15.3° 1020.4 hPa 2.1 m/s 1.2 mm
19:00 15.7° 1018.3 hPa 2.2 m/s 1.2 mm
 05:05     21:58    Daglengte: 16:53 Vrijdag 28 Jun
01:00 10.9° 1018.1 hPa 2.3 m/s 0.8 mm
07:00 11.3° 1017.1 hPa 2.2 m/s 0.7 mm
13:00 16.6° 1016.7 hPa 2.7 m/s 0.4 mm
19:00 16.5° 1015.7 hPa 2.5 m/s 1.1 mm
 05:05     21:58    Daglengte: 16:53 Zaterdag 29 Jun
01:00 11.1° 1015.9 hPa 2.1 m/s 0.6 mm
07:00 11.1° 1015.0 hPa 2.0 m/s 0.3 mm
13:00 16.4° 1014.5 hPa 2.3 m/s 0.5 mm
19:00 16.2° 1013.3 hPa 1.8 m/s 1.5 mm
 05:06     21:57    Daglengte: 16:51 Zondag 30 Jun
01:00 11.0° 1012.8 hPa 1.9 m/s 0.6 mm
07:00 11.1° 1011.8 hPa 2.1 m/s 0.6 mm
13:00 15.4° 1012.2 hPa 2.5 m/s 0.9 mm
19:00 15.4° 1012.0 hPa 2.4 m/s 1.8 mm
 05:07     21:57    Daglengte: 16:50 Maandag 01 Jul
01:00 10.0° 1013.1 hPa 2.2 m/s 0.4 mm
07:00 9.8° 1013.1 hPa 2.3 m/s 0.3 mm
13:00 15.6° 1013.6 hPa 3.1 m/s 0.7 mm
FMI Hirlam - 7.5 km EWN WRFDA - 12 km DWD ICON - 7 km GFS - 25 km Basiskaart






























































Updatetijd (Europe/Amsterdam) Resolutie Lengte Stap
FMI Hirlam 13:00, 19:00, 01:00, 07:00 7.5 km 49h 1h
EWN WRFDA 16:15, 22:15, 04:15, 10:15 12 km 73h 1h
DWD ICON 18:00, 00:00, 06:00, 12:00 7 km 75h 1h
GFS 14:30, 20:30, 02:30, 08:30 25 km 237h 3h
30+ mm
25-30 mm
20-25 mm
15-20 mm
10-15 mm
6-10 mm
4-6 mm
2-4 mm
1-2 mm
0.5-1 mm
0.2-0.5 mm
0.1-0.2 mm
30+ mm
25-30 mm
20-25 mm
15-20 mm
10-15 mm
6-10 mm
4-6 mm
2-4 mm
1-2 mm
0.5-1 mm
0.2-0.5 mm
0.1-0.2 mm
Sneeuwval
Natte sneeuw
Hagel
Vorst
30+ mm
25-30 mm
20-25 mm
15-20 mm
10-15 mm
6-10 mm
4-6 mm
2-4 mm
1-2 mm
0.5-1 mm
0.2-0.5 mm
0.1-0.2 mm
Sneeuwval
Natte sneeuw
Hagel
Vorst
Onweer
50 mm
40 mm
30 mm
26 mm
22 mm
18 mm
14 mm
10 mm
9 mm
8 mm
7 mm
6 mm
5 mm
4.5 mm
4 mm
3.5 mm
3 mm
2.5 mm
2 mm
1.5 mm
1 mm
0.8 mm
0.6 mm
0.4 mm
0.2 mm
0.05 mm
35°
30°
25°
20°
15°
10°
-5°
-10°
-15°
-20°
-25°
-30°
-35°
33> m/s
29 m/s
25 m/s
21 m/s
17 m/s
14 m/s
11 m/s
8 m/s
5 m/s
3 m/s
0 m/s
2600 J/kg
2400 J/kg
2200 J/kg
2000 J/kg
1800 J/kg
1600 J/kg
1400 J/kg
1200 J/kg
1000 J/kg
800 J/kg
600 J/kg
400 J/kg
200 J/kg
70 dBZ
65 dBZ
60 dBZ
55 dBZ
50 dBZ
45 dBZ
40 dBZ
35 dBZ
30 dBZ
25 dBZ
20 dBZ
15 dBZ
10 dBZ
5 dBZ
-1 K
-2 K
-3 K
-4 K
-5 K
-6 K
-7 K
-8 K
-9 K
950 m²/s²
900 m²/s²
850 m²/s²
800 m²/s²
750 m²/s²
700 m²/s²
650 m²/s²
600 m²/s²
550 m²/s²
500 m²/s²
450 m²/s²
400 m²/s²
350 m²/s²
300 m²/s²
250 m²/s²
200 m²/s²
150 m²/s²
100 m²/s²
46 m/s
44 m/s
42 m/s
40 m/s
38 m/s
36 m/s
34 m/s
32 m/s
30 m/s
28 m/s
26 m/s
24 m/s
22 m/s
20 m/s
16 m/s
12 m/s
8 m/s
4 m/s
30 m/s
28 m/s
26 m/s
24 m/s
22 m/s
20 m/s
18 m/s
16 m/s
14 m/s
12 m/s
10 m/s
8 m/s
6 m/s
4 m/s
2 m/s
3.0
2.8
2.6
2.4
2.2
2.0
1.8
1.6
1.4
1.2
1.0
0.8
0.6
0.4
0.2
15
14
13
12
11
10
9
8
7
6
5
4
3
2
1
90%
80%
70%
60%
50%
40%
30%
20%
10%
42
40
38
36
34
32
30
28
26
24
22
20
18
16